www.pogodaiklimat.ru

Погода и климат >> Архив погоды >> Россия >> Якутия >> Среднеколымск


АРХИВ ПОГОДЫ в Среднеколымске

Время (UTC), дата Ветер
(напр.,м/с)
 
Видим.   Явления Облачность Т
(С)
Тd
(С)
f
(%)
Тe
(С)
Тes
(С)
Комфортность P
(гПа)
Po
(гПа)
Тmin
(С)
Tmax
(С)
R
(мм)
R24
(мм)
S
(см)
12 11.08 С 2 50 км 6/0
[Ci fib]
+14.6 +10.0 74 +14 +14 1013.4 1009.7
15 11.08 С 2 50 км 6/0
[Ci fib]
+10.8 +9.2 90 +9 +9 1012.4 1008.6
18 11.08 СВ 3 50 км 10/9 200 м
[St Ci fib]
+10.4 +9.6 95 +8 +8 1012.1 1008.3
21 11.08 СВ 4 50 м туман 10/10 100 м
[St]
+9.9 +9.7 99 +7 +7 1012.3 1008.5 +7.6
00 12.08 В 3 50 км {туман} 10/3 300 м
[St Ci fib]
+14.2 +11.0 81 +13 +16 1011.6 1007.9
03 12.08 СВ 3 50 км 6/0
[Ci fib]
+20.2 +12.2 60 +22 +28 комфорт 1010.7 1007.0
06 12.08 СВ 4 50 км 4/3 1000 м
[Cu hum Ci fib]
+21.8 +12.1 54 +24 +26 комфорт 1009.8 1006.2
09 12.08 С 4 50 км 6/0
[Ci fib]
+19.2 +11.2 60 +20 +20 1010.3 1006.6 +22.3
12 12.08 С 1 50 км 3/0
[Ci fib]
+13.6 +11.3 86 +14 +14 1010.9 1007.2
15 12.08 С 2 50 км 3/0
[Ci fib]
+10.9 +9.9 94 +9 +9 1011.2 1007.4
18 12.08 СЗ 5 50 км 10/10 300 м
[St]
+6.7 +6.0 95 +2 +2 1012.0 1008.2
21 12.08 СЗ 3 50 км в посл. час морось 10/10 200 м
[St]
+5.4 +4.5 94 +2 +2 1012.7 1008.8 +5.2 0.0
00 13.08 С 4 50 км {морось} 4/1 300 м
[Sc Ci fib]
+11.0 +4.1 62 +9 +13 1012.5 1008.7
03 13.08 С 6-10
{10}
50 км 10/0
[Ci fib]
+14.6 +2.5 44 +13 +15 1012.0 1008.3
06 13.08 С 5
{12}
50 км 10/0
[Ci fib]
+15.6 +3.4 44 +15 +16 1012.4 1008.7
09 13.08 С 3 50 км 10/1 1000 м
[Cb cap Ci fib]
+14.1 +7.4 64 +13 +13 1013.0 1009.3 +15.9
12 13.08 С 4 50 км 10/1 1000 м
[Sc Ci fib]
+11.0 +8.1 82 +9 +9 1013.9 1010.1
15 13.08 С 4 50 км 10/10 1000 м
[Sc]
+10.0 +7.0 82 +7 +7 1014.8 1011.0
18 13.08 С 3 50 км 10/10 1000 м
[Cb cap]
+8.4 +6.5 88 +6 +6 1015.9 1012.1
21 13.08 С 3 50 км в посл. час морось 10/10 300 м
[St]
+6.8 +6.1 95 +4 +4 1017.1 1013.3 +6.4 0.0
00 14.08 СЗ 3 50 км в посл. час морось 9/9 300 м
[St]
+8.8 +4.3 73 +6 +7 1017.9 1014.1
03 14.08 В 2 20 км слаб. морось 10/10 300 м
[St]
+7.4 +3.9 78 +5 +5 1019.0 1015.2
06 14.08 С 3 50 км {морось} 10/10 300 м
[Sc]
+7.8 +3.6 75 +5 +5 1019.6 1015.8
09 14.08 В 3 50 км 10/10 600 м
[Sc]
+7.6 +3.9 77 +5 +5 1020.5 1016.7 +8.9 0.0
12 14.08 В 2 50 км 10/10 300 м
[Sc]
+6.6 +3.3 79 +4 +4 1021.4 1017.5
15 14.08 штиль 0 50 км 10/10 300 м
[Sc]
+6.2 +3.9 85 +5 +5 1021.5 1017.6
18 14.08 В 3 50 км 10/10 300 м
[Sc]
+6.2 +4.1 86 +3 +3 1022.4 1018.5
21 14.08 В 3 50 км 10/10 300 м
[St]
+6.6 +4.3 85 +4 +4 1023.3 1019.4 +5.8
00 15.08 В 4 50 км 10/4 300 м
[St Ci fib]
+8.8 +4.8 76 +6 +8 1023.2 1019.4
03 15.08 СВ 4 50 км 6/0
[Ci fib]
+12.2 +2.0 50 +11 +15 1023.1 1019.3
06 15.08 СВ 3 50 км 4/0
[Ci fib]
+14.1 +3.2 48 +13 +16 1023.1 1019.3
09 15.08 СВ 3 50 км 6/0
[Ci fib]
+12.4 +3.7 55 +11 +11 1023.6 1019.8 +14.3
12 15.08 В 3 50 км 10/0
[Ci fib]
+8.6 +4.0 73 +6 +6 1024.2 1020.4
15 15.08 СВ 3 50 км 10/0
[Ci fib]
+6.1 +5.6 97 +3 +3 1024.6 1020.7
18 15.08 В 3 50 км 10/0
[Ci fib]
+5.1 +3.1 87 +2 +2 1025.3 1021.4
21 15.08 В 2 50 км 4/0
[Ci fib]
+8.1 +5.7 85 +6 +8 1025.7 1021.9 +4.6
00 16.08 СВ 3 50 км 4/0
[Ci fib]
+14.8 +3.4 46 +14 +19 1025.5 1021.7
03 16.08 В 3 50 км 3/0
[Ci fib]
+18.1 +0.4 30 +18 +24 1025.1 1021.4
06 16.08 СВ 3 50 км ясно +18.2 +2.9 36 +18 +21 1024.0 1020.3
09 16.08 СВ 2 50 км 4/0
[Ci fib]
+15.8 +5.6 51 +16 +16 1024.2 1020.4 +19.3
12 16.08 СВ 2 50 км 8/0
[Ci fib]
+10.4 +6.1 75 +9 +9 1024.4 1020.6
15 16.08 СВ 1 50 км 10/0
[Ci fib]
+6.8 +3.0 77 +6 +6 1024.5 1020.7
18 16.08 СВ 1 50 км 10/0
[Ci fib]
+5.6 +2.1 78 +5 +5 1025.1 1021.2
21 16.08 СВ 2 50 км 6/0
[Ci fib]
+11.0 +3.0 58 +10 +12 1025.6 1021.8 +3.6
00 17.08 СВ 2 50 км 4/0
[Ci fib]
+16.5 +3.8 43 +17 +23 1025.5 1021.7
03 17.08 СВ 3 50 км 4/0
[Ci fib]
+19.4 +4.5 37 +20 +25 1025.0 1021.2
06 17.08 В 2 50 км 3/0
[Ci fib]
+21.8 +2.3 28 +22 +24 комфорт 1024.2 1020.6
09 17.08 В 1 50 км 6/0
[Ci fib]
+18.2 +6.6 47 +19 +20 1024.1 1020.4 +21.9
12 17.08 В 2 50 км 10/0
[Ci fib]
+12.2 +5.6 64 +11 +11 1024.6 1020.8
15 17.08 штиль 0 50 км 10/0
[Ci fib]
+4.3 +3.1 92 +3 +3 1024.4 1020.5
18 17.08 СВ 2 50 км 10/0
[Ci fib]
+4.9 +3.5 91 +2 +2 1024.3 1020.4
21 17.08 ЮВ 1 50 км 10/0
[Ci fib]
+12.6 +3.7 55 +13 +15 1024.9 1021.1 +1.7
00 18.08 С 3 50 км 6/0
[Ci fib]
+17.6 +3.5 39 +18 +22 1024.0 1020.3
03 18.08 ЮВ 3 50 км 3/0
[Ci fib]
+22.0 +3.0 29 +22 +27 комфорт 1023.1 1019.5
06 18.08 В 2 50 км 4/0
[Ci fib]
+22.8 +4.7 31 +23 +26 комфорт 1022.5 1018.9

 

Местоположение метеостанции Среднеколымск (Якутия, Россия): широта 67.45 долгота 153.70 высота над уровнем моря 21 м.

В архиве по умолчанию представлена погода в Среднеколымске за последнюю неделю. Архивные данные за месяц целиком и за предыдущие месяцы, начиная с января 2011 года, Вы можете получить, выбрав интересующий диапазон дат из раскрывающегося списка и нажав кнопку "Ввод!".


*Определитесь, кто Вы:
робот инопланетянин человек

Внимание! Время в таблицах - всемирное. Для получения местного времени необходимо прибавить поправку, которая равна 11 ч.

Смотрите также архив погоды в соседних городах и на ближайших метеорологических станциях:

Погода в Андрюшкино (Якутия, Россия) (194 км)
Погода в Зырянке (Якутия, Россия) (228 км)
Погода в Колымской (Якутия, Россия) (248 км)
Погода в Коркодоне (Магаданская область, Россия) (300 км)
Погода в Константиновской (Чукотка, Россия) (320 км)
Погода в Белой Горе (Якутия, Россия) (335 км)
Погода в Анюйске (Чукотка, Россия) (341 км)
Погода в Черском (Якутия, Россия) (346 км)
Погода в Омолоне (Чукотка, Россия) (391 км)
Погода в Балыгычане (Магаданская область, Россия) (394 км)

Пояснения к столбцам:

Ветер - указаны скорость ветра в м/с - средняя за 10 мин, порывы в срок и между сроками (в фигурных скобках) и направление, откуда дует ветер: С - северный, СВ - северо-восточный, В - восточный, ЮВ - юго-восточный, Ю - южный, ЮЗ - юго-западный, З - западный, СЗ - северо-западный.
Видимость - горизонтальная дальность видимости в метрах или километрах. При видимости от 1 до 10 км при отсутствии осадков обычно наблюдается дымка, при ухудшении видимости до 1 км и менее - туман. В сухую погоду видимость может ухудшаться дымом, пылью или мглою.
Явления - указаны атмосферные явления, наблюдавшиеся в срок или в последний час перед сроком; фигурными скобками обозначены явления, наблюдавшиеся между сроками (за 1-3 часа до срока); квадратными скобками обозначены град или гололедные отложения с указанием их диаметра в мм.
Облачность - указаны через наклонную черту общая и нижняя облачность в баллах и высота нижней границы облаков в метрах; квадратными скобками обозначены формы облаков: Ci - перистые, Cs - перисто-слоистые, Cc - перисто-кучевые, Ac - высококучевые, As - высокослоистые, Sc - слоисто-кучевые, Ns - слоисто-дождевые, Cu - кучевые, Cb - кучево-дождевые. Подробнее классификацию облаков см. в Атласе облаков (PDF).
T - Температура воздуха - температура, измеренная на высоте 2 м над землей.
Td - Температура точки росы - температура, при понижении до которой содержащийся в воздухе водяной пар достигнет насыщения.
f - Относительная влажность воздуха - влажноcть воздуха, измеренная на высоте 2 м над землей.
Te - Эффективная температура - температура, которую ощущает одетый по сезону человек в тени. Характеристика душности погоды. При расчете учитывается влияние влажности воздуха и скорости ветра на теплоощущения человека.
Tes - Эффективная температура на солнце - температура, которую ощущает человек, с поправкой на солнечный нагрев. Характеристика знойности погоды. Зависит от высоты солнца над горизонтом, облачности и скорости ветра. Ночью, в пасмурную погоду, а также при ветре 12 м/с и более поправка равна нулю.
P - Атмосферное давление - приведенное к уровню моря атмосферное давление.
Po - Атмосферное давление - измеренное на уровне метеостанции атмосферное давление.
Tmin - Минимальная температура - минимум температуры воздуха на высоте 2 м над землей.
Tmax - Максимальная температура - максимум температуры воздуха на высоте 2 м над землей.
R - Количество осадков - Количество выпавших осадков за период времени, мм. При наведении курсора мыши на число - период времени, за который выпало указанное количество осадков.
R24 - Количество осадков - Количество выпавших осадков за 24 часа, мм.
S - Снежный покров - Высота снежного покрова, см. При наведении курсора мыши на число - состояние снежного покрова и степень покрытия местности в баллах.